STARLINK-1320 (45572 NORAD) Tracking and Keplerian Element Data

This shows tracking and keplerian element data for the satellite.

Feedback or suggestion? Click here.




ElementValue
Catalog45572
NameSTARLINK-1320
Epoch Orbit1267
Epoch Day190.16667824
Epoch Year2020
RAAN24.1632
Inclination52.9973
Eccentricity0.0002551
Argument of Perigee358.4941
Mean Anonmoly245.1179
Mean Motion15.62752192
Decay Rate-0.00025465
L11 45572U 20025AT 20190.16667824 -.00025465 00000-0 -27309-3 0 9992
L22 45572 52.9973 24.1632 0002551 358.4941 245.1179 15.62752192 12670

Live tracking and technical data element details for STARLINK-1320 (NORAD 45572). STARLINK-1320 can be tracked NOW for your location showing map with azimuth and elevation plus other details from your city location.

Track the satellite on the map from your city or location and see movement details for azimuth, elevation, latitude, longitude, range, height, and movement on the map or in text.







IsCatalogInMostPopularTable: catalog: 45572, numindb: 22
Update: records affected: 1



GetName: 45572 STARLINK-1320

Hit Count: updated at: Thu, 09 Jul 2020 00:44:59 GMT